CDT,Max TemperatureF,Mean TemperatureF,Min TemperatureF,Max Dew PointF,MeanDew PointF,Min DewpointF,Max Humidity, Mean Humidity, Min Humidity, Max Sea Level PressureIn, Mean Sea Level PressureIn, Min Sea Level PressureIn, Max VisibilityMiles, Mean VisibilityMiles, Min VisibilityMiles, Max Wind SpeedMPH, Mean Wind SpeedMPH, Max Gust SpeedMPH,PrecipitationIn, CloudCover, Events, WindDirDegrees
2013-9-1,89,76,62,73,66,57,94,66,37,29.99,29.86,29.70,10,10,10,15,5,22,T,0,,10
2013-9-2,85,70,55,62,60,54,100,72,43,30.08,30.03,29.99,10,10,3,12,2,17,0.00,0,Rain,34
2013-9-3,88,70,51,60,54,50,100,65,29,30.10,30.06,30.00,10,6,0,8,1,14,0.00,0,Fog,150
2013-9-4,92,73,53,61,57,52,93,63,32,30.15,30.09,30.05,10,10,10,12,3,16,0.00,0,,155
2013-9-5,93,78,62,64,61,59,90,62,33,30.17,30.11,30.06,10,10,10,10,3,15,0.00,0,,134
2013-9-6,97,81,65,68,64,61,93,64,35,30.09,30.01,29.92,10,10,10,14,5,17,0.00,0,,186
2013-9-7,103,87,71,67,65,62,79,53,27,29.94,29.89,29.84,10,10,9,15,7,21,0.00,0,,209
2013-9-8,104,88,71,67,65,62,84,56,27,29.87,29.83,29.78,10,10,8,14,6,18,0.00,0,,213
2013-9-9,98,84,70,64,60,55,68,47,26,29.88,29.84,29.81,10,10,10,23,11,31,0.00,0,,208
2013-9-10,98,86,74,64,61,58,64,49,33,30.02,29.95,29.88,10,10,10,23,11,30,0.00,0,,208
2013-9-11,96,82,68,73,65,58,94,65,35,30.16,30.07,29.98,10,8,1,17,6,24,0.95,4,Rain-Thunderstorm,275
2013-9-12,84,76,67,72,67,53,93,72,51,30.19,30.13,30.08,10,9,6,13,5,17,0.04,5,Rain,45
2013-9-13,78,67,56,54,52,49,86,62,38,30.19,30.13,30.06,10,10,10,14,5,20,0.00,0,,67
2013-9-14,83,68,52,60,55,49,93,67,40,30.07,29.99,29.89,10,10,10,18,6,22,0.00,0,,157
2013-9-15,83,72,61,68,62,60,100,79,58,30.18,30.04,29.88,10,8,1,22,9,26,1.05,6,Rain-Thunderstorm,33
2013-9-16,62,61,59,61,60,57,100,95,90,30.25,30.19,30.15,10,6,1,17,8,23,0.62,8,Rain-Thunderstorm,68
2013-9-17,84,73,61,70,65,60,100,79,58,30.17,30.04,29.88,10,8,2,18,8,23,0.20,6,Rain-Thunderstorm,156
2013-9-18,92,82,71,68,67,64,84,64,44,29.91,29.80,29.71,10,10,9,28,14,43,0.00,0,,198
2013-9-19,93,79,64,69,64,56,74,59,44,29.99,29.82,29.74,10,10,10,25,12,32,0.00,3,,240
2013-9-20,75,63,50,53,50,46,93,65,36,30.12,30.04,29.98,10,10,10,14,4,20,0.00,0,,350
2013-9-21,83,65,47,56,52,47,100,67,33,30.04,29.96,29.87,10,10,9,12,3,15,0.00,0,,166
2013-9-22,81,67,52,55,51,48,93,63,33,29.93,29.86,29.80,10,10,10,20,6,25,0.00,0,,175
2013-9-23,80,66,52,54,51,48,83,60,37,29.84,29.76,29.69,10,10,10,25,13,33,0.00,1,,166
2013-9-24,74,64,54,57,56,53,93,75,57,29.90,29.81,29.69,10,10,9,16,6,24,0.00,4,,282
2013-9-25,81,65,49,61,55,48,100,73,45,29.93,29.86,29.75,10,6,0,14,4,18,0.00,2,Fog,152
2013-9-26,89,78,66,61,59,56,78,58,38,29.79,29.76,29.70,10,10,10,25,14,32,0.00,0,,161
2013-9-27,89,79,69,62,60,57,70,55,40,29.86,29.80,29.75,10,10,10,25,14,35,0.00,0,,169
2013-9-28,76,62,47,67,55,44,93,66,38,30.11,29.90,29.69,10,9,2,24,6,35,0.24,4,Rain,274
2013-9-29,77,60,42,49,45,41,100,65,29,30.12,30.03,29.93,10,10,7,12,2,16,0.00,0,,174
2013-9-30,82,63,44,54,50,45,100,67,34,29.93,29.84,29.78,10,10,10,15,5,20,0.00,0,,192